Meteo Giornale » Osservazioni meteo Italia » Lecce

ore: 11:55 - Osservazioni Meteo Lecce
Lat. 40° 14' N Lon. 18° 9' E Alt. 48 metri s.l.m.

foschia Europe/Rome

19 °C

Foschia

Temp. 24 Ore

13 °C

24 °C

Nord

3.7 Km/h

Dew point 18 °C

Umidità 93 %

Visibilità  5 Km

Il sole sorge alle ore 07:00

Il sole tramonta alle ore 18:04

Data e Ora Cielo e Fenomeni T °C DP °C Um. % Pres. hPa Vis. km Vento km/h
Oggi h: 11:55 foschia Foschia 19 18 93 1020 5 N 3.7
Oggi h: 11:15 foschia Foschia 18 17 93 1020 3 N 5.5
Oggi h: 10:55 foschia Foschia 17 17 100 1020 2 E/NE 7.4
Oggi h: 09:55 nebbia Nebbia 16 16 100 1020 0.05 N 1.8
Oggi h: 08:55 nebbia Nebbia 15 14 93 1020 0.1 N 1.8
Oggi h: 07:55 nebbia Nebbia 14 14 100 1020 0.1 N 5.5
Oggi h: 06:55 nebbia Nebbia 14 13 93 1020 0 N 1.8
Oggi h: 05:55 nebbia Nebbia 13 12 93 1021 0 N 1.8
Oggi h: 03:55 nebbia Nebbia 14 13 93 1021 0.1 N 1.8
Oggi h: 02:55 nebbia Nebbia 13 12 93 1021 0.3 N 3.7
Oggi h: 01:55 foschia Foschia 13 12 93 1022 1 N 1.8
Oggi h: 00:55 foschia Foschia 15 14 93 1022 2 N 3.7
Ieri h: 22:55 foschia Foschia 17 16 93 1022 4 N 3.7
Ieri h: 21:55 foschia Foschia 17 16 93 1022 4 N 3.7
Ieri h: 20:55 foschia Foschia 16 15 93 1022 5 N 5.5
Ieri h: 19:55 sereno Sereno 18 17 93 1023 7 N 5.5
Ieri h: 18:55 sereno Sereno 19 18 93 1023 8 N 5.5
Ieri h: 17:55 sereno Sereno 20 18 88 1023 10 N/NE 9.3
Ieri h: 16:55 sereno Sereno 23 20 83 1023 10 N/NE 11.1
Ieri h: 15:55 sereno Sereno 24 19 73 1023 10 N/NE 11.1
Ieri h: 14:55 sereno Sereno 24 19 73 1024 10 N 13
Ieri h: 13:55 sereno Sereno 24 19 73 1024 10 N/NE 9.3